Date String (YYYY-MM-DD hh:mm:ss) UTC,Instrument flags,absolute air pressure of the measurement (hPa),sample flow rate (lpm),inlet stack bypass flow (lpm),air temperature of the measurement (°C),ambient temperature measured by the external sensor (°C),aerosol sample conditioner tube jacket temperature (°C),OPC LED temperature (°C),internal box temperature (°C),relative humidity of the measurement (%),span deviation,mass concentration of particles derived from Lorenz-Mie calculation of OPC scattering (μg/m³),mass concentration of particles derived from Lorenz-Mie calculation of OPC scattering (μg/m³),mass concentration of particles derived from Lorenz-Mie calculation of OPC scattering (μg/m³)
DateTimeUTC,F1_M11,P_M11,Q1_M11,Q2_M11,T1_M11,T2_M11,T3_M11,T4_M11,T5_M11,U1_M11,ZSPAN_M11,X2_M11,X0_M11,X1_M11
2023-11-20 05:00:00,SystemResetWarning,0823.5,5.00,000.00,025.6,024.4,000.0,034.0,026.9,16.5,0000.0,0001.79,0003.59,0001.48
2023-11-20 05:01:00,SystemResetWarning,0823.5,5.01,000.00,025.6,024.4,000.0,034.0,026.9,16.5,0000.0,0001.81,0003.67,0001.48
2023-11-20 05:02:00,SystemResetWarning,0823.5,5.01,000.00,025.6,024.4,000.0,034.0,026.9,16.6,0000.0,0001.81,0003.68,0001.48
2023-11-20 05:03:00,SystemResetWarning,0823.5,5.01,000.00,025.5,024.4,000.0,034.0,026.9,16.6,0000.0,0001.79,0003.67,0001.47
2023-11-20 05:04:00,SystemResetWarning,0823.5,5.00,000.00,025.6,024.4,000.0,034.0,026.9,16.6,0000.0,0001.77,0003.67,0001.46
2023-11-20 05:05:00,SystemResetWarning,0823.5,4.99,000.00,025.5,024.4,000.0,033.9,026.9,16.5,0000.0,0001.77,0002.84,0001.45
2023-11-20 05:06:00,SystemResetWarning,0823.5,5.00,000.00,025.5,024.4,000.0,033.9,026.9,16.6,0000.0,0001.76,0003.01,0001.45
2023-11-20 05:07:00,SystemResetWarning,0823.5,5.00,000.00,025.5,024.4,000.0,033.9,026.9,16.6,0000.0,0001.77,0003.40,0001.45
2023-11-20 05:08:00,SystemResetWarning,0823.6,5.02,000.00,025.5,024.4,000.0,033.9,026.8,16.6,0000.0,0001.82,0003.66,0001.46
2023-11-20 05:09:00,SystemResetWarning,0823.6,5.00,000.00,025.5,024.4,000.0,033.9,026.9,16.7,0000.0,0001.84,0005.20,0001.46
2023-11-20 05:10:00,SystemResetWarning,0823.6,5.00,000.00,025.5,024.4,000.0,033.9,026.9,16.8,0000.0,0001.82,0005.33,0001.46
2023-11-20 05:11:00,SystemResetWarning,0823.6,4.99,000.00,025.5,024.4,000.0,033.9,026.9,16.8,0000.0,0001.82,0005.70,0001.47
2023-11-20 05:12:00,SystemResetWarning,0823.6,5.00,000.00,025.5,024.4,000.0,033.9,026.8,16.8,0000.0,0001.85,0005.84,0001.47
2023-11-20 05:13:00,SystemResetWarning,0823.6,5.00,000.00,025.5,024.4,000.0,033.9,026.9,16.8,0000.0,0001.83,0005.79,0001.47
2023-11-20 05:14:00,SystemResetWarning,0823.7,5.00,000.00,025.5,024.5,000.0,033.9,026.9,16.9,0000.0,0001.82,0005.79,0001.47
2023-11-20 05:15:00,SystemResetWarning,0823.7,5.00,000.00,025.5,024.5,000.0,033.9,026.8,16.9,0000.0,0001.80,0005.77,0001.46
2023-11-20 05:16:00,SystemResetWarning,0823.7,5.01,000.00,025.5,024.5,000.0,033.9,026.8,16.9,0000.0,0001.80,0005.79,0001.46
2023-11-20 05:17:00,SystemResetWarning,0823.7,5.00,000.00,025.5,024.5,000.0,033.9,026.8,16.8,0000.0,0001.77,0005.38,0001.45
2023-11-20 05:18:00,SystemResetWarning,0823.7,4.98,000.00,025.5,024.5,000.0,033.9,026.9,16.8,0000.0,0001.77,0004.85,0001.43
2023-11-20 05:19:00,SystemResetWarning,0823.7,5.00,000.00,025.5,024.5,000.0,033.9,026.8,16.8,0000.0,0001.72,0004.73,0001.41
2023-11-20 05:20:00,SystemResetWarning,0823.7,5.00,000.00,025.5,024.4,000.0,033.9,026.8,16.8,0000.0,0001.70,0003.09,0001.40
2023-11-20 05:21:00,SystemResetWarning,0823.7,5.01,000.00,025.5,024.4,000.0,033.9,026.8,16.8,0000.0,0001.66,0002.91,0001.38
2023-11-20 05:22:00,SystemResetWarning,0823.8,5.01,000.00,025.5,024.4,000.0,033.9,026.8,16.8,0000.0,0001.63,0002.37,0001.36
2023-11-20 05:23:00,SystemResetWarning,0823.8,5.00,000.00,025.5,024.4,000.0,033.9,026.8,16.8,0000.0,0001.58,0002.19,0001.35
2023-11-20 05:24:00,SystemResetWarning,0823.8,4.99,000.00,025.5,024.5,000.0,033.9,026.8,16.7,0000.0,0001.57,0002.57,0001.32
2023-11-20 05:25:00,SystemResetWarning,0823.8,5.00,000.00,025.5,024.5,000.0,033.9,026.8,16.7,0000.0,0001.55,0002.55,0001.31
2023-11-20 05:26:00,SystemResetWarning,0823.8,5.00,000.00,025.5,024.5,000.0,033.9,026.8,16.7,0000.0,0001.55,0002.59,0001.31
2023-11-20 05:27:00,SystemResetWarning,0823.7,5.00,000.00,025.5,024.5,000.0,033.9,026.8,16.6,0000.0,0001.57,0002.66,0001.32
2023-11-20 05:28:00,SystemResetWarning,0823.8,4.99,000.00,025.5,024.5,000.0,033.9,026.8,16.6,0000.0,0001.56,0003.39,0001.31
2023-11-20 05:29:00,SystemResetWarning,0823.8,5.00,000.00,025.5,024.5,000.0,033.9,026.9,16.6,0000.0,0001.54,0003.51,0001.31
2023-11-20 05:30:00,SystemResetWarning,0823.8,5.00,000.00,025.5,024.5,000.0,033.9,026.8,16.7,0000.0,0001.56,0003.83,0001.32
2023-11-20 05:31:00,SystemResetWarning,0823.8,5.00,000.00,025.5,024.4,000.0,033.9,026.8,16.7,0000.0,0001.59,0004.84,0001.32
2023-11-20 05:32:00,SystemResetWarning,0823.8,5.01,000.00,025.5,024.4,000.0,033.8,026.7,16.7,0000.0,0001.58,0004.81,0001.33
2023-11-20 05:33:00,SystemResetWarning,0823.8,5.00,000.00,025.5,024.4,000.0,033.8,026.7,16.7,0000.0,0001.60,0004.88,0001.34
2023-11-20 05:34:00,SystemResetWarning,0823.8,5.00,000.00,025.5,024.4,000.0,033.8,026.7,16.8,0000.0,0001.59,0005.11,0001.35
2023-11-20 05:35:00,SystemResetWarning,0823.8,5.00,000.00,025.4,024.3,000.0,033.8,026.7,16.8,0000.0,0001.60,0004.80,0001.36
2023-11-20 05:36:00,SystemResetWarning,0823.8,4.99,000.00,025.4,024.3,000.0,033.8,026.7,16.8,0000.0,0001.61,0004.76,0001.37
2023-11-20 05:37:00,SystemResetWarning,0823.8,5.00,000.00,025.4,024.3,000.0,033.8,026.7,16.8,0000.0,0001.62,0004.91,0001.38
2023-11-20 05:38:00,SystemResetWarning,0823.8,5.00,000.00,025.4,024.3,000.0,033.8,026.7,16.8,0000.0,0001.63,0004.97,0001.40
2023-11-20 05:39:00,SystemResetWarning,0823.8,4.99,000.00,025.4,024.2,000.0,033.8,026.7,16.7,0000.0,0001.64,0004.40,0001.41
2023-11-20 05:40:00,SystemResetWarning,0823.8,4.99,000.00,025.4,024.2,000.0,033.8,026.6,16.7,0000.0,0001.66,0004.11,0001.43
2023-11-20 05:41:00,SystemResetWarning,0823.8,5.00,000.00,025.3,024.2,000.0,033.8,026.6,16.8,0000.0,0001.68,0004.17,0001.43
2023-11-20 05:42:00,SystemResetWarning,0823.8,5.00,000.00,025.3,024.1,000.0,033.8,026.6,16.9,0000.0,0001.64,0003.00,0001.43
2023-11-20 05:43:00,SystemResetWarning,0823.8,5.01,000.00,025.3,024.1,000.0,033.8,026.6,16.9,0000.0,0001.67,0002.93,0001.44
2023-11-20 05:44:00,SystemResetWarning,0823.8,5.00,000.00,025.3,024.1,000.0,033.8,026.6,16.9,0000.0,0001.68,0002.95,0001.45
2023-11-20 05:45:00,SystemResetWarning,0823.8,5.00,000.00,025.3,024.1,000.0,033.7,026.6,16.9,0000.0,0001.71,0002.71,0001.46
2023-11-20 05:46:00,SystemResetWarning,0823.8,5.00,000.00,025.3,024.1,000.0,033.7,026.6,16.9,0000.0,0001.71,0002.70,0001.47
2023-11-20 05:47:00,SystemResetWarning,0823.8,5.00,000.00,025.3,024.1,000.0,033.7,026.6,16.9,0000.0,0001.71,0002.77,0001.46
2023-11-20 05:48:00,SystemResetWarning,0823.8,5.00,000.00,025.3,024.1,000.0,033.7,026.6,16.9,0000.0,0001.70,0003.74,0001.44
2023-11-20 05:49:00,SystemResetWarning,0823.8,4.99,000.00,025.3,024.0,000.0,033.7,026.6,16.9,0000.0,0001.67,0004.06,0001.42
2023-11-20 05:50:00,SystemResetWarning,0823.8,5.00,000.00,025.2,024.0,000.0,033.7,026.6,16.9,0000.0,0001.64,0004.14,0001.41
2023-11-20 05:51:00,SystemResetWarning,0823.8,5.01,000.00,025.2,024.0,000.0,033.7,026.6,16.9,0000.0,0001.68,0004.23,0001.41
2023-11-20 05:52:00,SystemResetWarning,0823.8,5.00,000.00,025.2,024.0,000.0,033.7,026.6,16.9,0000.0,0001.68,0004.35,0001.41
2023-11-20 05:53:00,SystemResetWarning,0823.8,5.00,000.00,025.2,024.0,000.0,033.7,026.5,16.8,0000.0,0001.66,0004.58,0001.40
2023-11-20 05:54:00,SystemResetWarning,0823.8,5.00,000.00,025.2,024.0,000.0,033.7,026.5,16.8,0000.0,0001.63,0004.49,0001.39
2023-11-20 05:55:00,SystemResetWarning,0823.8,5.00,000.00,025.2,024.0,000.0,033.7,026.5,16.7,0000.0,0001.67,0004.70,0001.38
2023-11-20 05:56:00,SystemResetWarning,0823.8,4.99,000.00,025.2,024.0,000.0,033.6,026.5,16.6,0000.0,0001.65,0004.70,0001.37
2023-11-20 05:57:00,SystemResetWarning,0823.8,4.99,000.00,025.2,023.9,000.0,033.6,026.5,16.6,0000.0,0001.64,0004.72,0001.36
2023-11-20 05:58:00,SystemResetWarning,0823.8,5.00,000.00,025.2,023.9,000.0,033.6,026.5,16.7,0000.0,0001.64,0004.65,0001.37
2023-11-20 05:59:00,SystemResetWarning,0823.8,5.00,000.00,025.2,023.9,000.0,033.6,026.5,16.7,0000.0,0001.64,0003.90,0001.37
